| time (UTC) | temp C | wind direction | speed KPH | gust KPH | rain 1hr cm | rain 24hr cm | rain mn cm | humidity % | barometer mb |
| 20260903010132 | 27 | 92 | 1.6 | 3.2 | 0.00 | 0.00 | 0.00 | 90 | 1021.1 |
| 20260903004614 | 27 | 0 | 0.0 | 3.2 | 0.00 | 0.00 | 0.00 | 89 | 1021.1 |
| 20260903003100 | 27 | 92 | 1.6 | 4.8 | 0.00 | 0.00 | 0.00 | 88 | 1021.1 |
| 20260903001557 | 28 | 92 | 0.0 | 3.2 | 0.00 | 0.00 | 0.00 | 87 | 1021.1 |
| 20260903000056 | 28 | 92 | 1.6 | 3.2 | 0.00 | 0.00 | 0.00 | 85 | 1021.3 |
| 20260902234558 | 29 | 92 | 1.6 | 6.4 | 0.00 | 0.00 | 0.00 | 81 | 1021.3 |
| 20260902233104 | 31 | 46 | 1.6 | 3.2 | 0.00 | 0.00 | 0.00 | 77 | 1021.3 |
| 20260902231602 | 32 | 46 | 0.0 | 3.2 | 0.00 | 0.00 | 0.00 | 70 | 1021.3 |
| 20260902230125 | 34 | 46 | 0.0 | 3.2 | 0.00 | 0.00 | 0.00 | 65 | 1021.4 |
| 20260902224628 | 35 | 46 | 1.6 | 6.4 | 0.00 | 0.00 | 0.00 | 59 | 1021.5 |
| 20260902223121 | 35 | 130 | 1.6 | 6.4 | 0.00 | 0.00 | 0.00 | 60 | 1021.5 |
| 20260902221559 | 35 | 301 | 3.2 | 8.0 | 0.00 | 0.00 | 0.00 | 57 | 1021.6 |
| 20260902220400 | 35 | 78 | 1.6 | 8.0 | 0.00 | 0.00 | 0.00 | 57 | 1021.7 |
| 20260902213134 | 35 | 41 | 4.8 | 8.0 | 0.00 | 0.00 | 0.00 | 56 | 1021.6 |
| 20260902211735 | 35 | 28 | 1.6 | 12.9 | 0.00 | 0.00 | 0.00 | 57 | 1021.8 |
| 20260902202016 | 34 | 23 | 1.6 | 12.9 | 0.00 | 0.00 | 0.00 | 58 | 1022.1 |
| 20260902194558 | 35 | 48 | 3.2 | 11.3 | 0.00 | 0.00 | 0.00 | 56 | 1022.4 |
| 20260902193102 | 34 | 79 | 3.2 | 12.9 | 0.00 | 0.00 | 0.00 | 58 | 1022.3 |
| 20260902191557 | 34 | 66 | 3.2 | 17.7 | 0.00 | 0.00 | 0.00 | 60 | 1022.5 |
| 20260902190100 | 34 | 5 | 4.8 | 14.5 | 0.00 | 0.00 | 0.00 | 60 | 1022.6 |
| 20260902184601 | 33 | 108 | 1.6 | 9.7 | 0.00 | 0.00 | 0.00 | 61 | 1022.6 |
| 20260902183113 | 33 | 155 | 1.6 | 12.9 | 0.00 | 0.00 | 0.00 | 61 | 1022.6 |
| 20260902181613 | 34 | 53 | 4.8 | 14.5 | 0.00 | 0.00 | 0.00 | 60 | 1022.6 |
| 20260902180151 | 33 | 327 | 3.2 | 11.3 | 0.00 | 0.00 | 0.00 | 59 | 1022.8 |
| 20260902174558 | 33 | 91 | 4.8 | 12.9 | 0.00 | 0.00 | 0.00 | 61 | 1022.8 |
| 20260902173117 | 33 | 0 | 3.2 | 12.9 | 0.00 | 0.00 | 0.00 | 62 | 1023.0 |
| 20260902171602 | 33 | 360 | 1.6 | 14.5 | 0.00 | 0.00 | 0.00 | 64 | 1023.4 |
| 20260902164626 | 32 | 47 | 4.8 | 14.5 | 0.00 | 0.00 | 0.00 | 65 | 1023.7 |
| 20260902163104 | 32 | 36 | 3.2 | 11.3 | 0.00 | 0.00 | 0.00 | 66 | 1023.9 |
| 20260902161607 | 32 | 15 | 1.6 | 8.0 | 0.00 | 0.00 | 0.00 | 69 | 1024.0 |
| 20260902160103 | 31 | 125 | 4.8 | 12.9 | 0.00 | 0.00 | 0.00 | 70 | 1024.1 |
| 20260902154557 | 31 | 23 | 3.2 | 9.7 | 0.00 | 0.00 | 0.00 | 72 | 1024.0 |
| 20260902153105 | 30 | 148 | 1.6 | 6.4 | 0.00 | 0.00 | 0.00 | 73 | 1024.1 |
| 20260902151601 | 30 | 148 | 0.0 | 8.0 | 0.00 | 0.00 | 0.00 | 75 | 1023.9 |
| 20260902150109 | 30 | 174 | 1.6 | 11.3 | 0.00 | 0.00 | 0.00 | 75 | 1024.0 |
| 20260902144607 | 29 | 51 | 1.6 | 6.4 | 0.00 | 0.00 | 0.00 | 77 | 1024.1 |
| 20260902143112 | 28 | 103 | 1.6 | 6.4 | 0.00 | 0.00 | 0.00 | 78 | 1023.9 |
| 20260902141602 | 28 | 108 | 1.6 | 6.4 | 0.00 | 0.00 | 0.00 | 81 | 1023.9 |
| 20260902140059 | 27 | 136 | 1.6 | 9.7 | 0.00 | 0.00 | 0.00 | 83 | 1023.9 |
| 20260902134600 | 27 | 52 | 0.0 | 6.4 | 0.00 | 0.00 | 0.00 | 86 | 1023.9 |
| 20260902133101 | 26 | 40 | 1.6 | 6.4 | 0.00 | 0.00 | 0.00 | 88 | 1024.0 |
| 20260902131554 | 25 | 0 | 1.6 | 6.4 | 0.00 | 0.00 | 0.00 | 91 | 1024.0 |
| 20260902130105 | 24 | 19 | 0.0 | 6.4 | 0.00 | 0.00 | 0.00 | 96 | 1024.0 |
| 20260902124600 | 23 | 45 | 0.0 | 1.6 | 0.00 | 0.00 | 0.00 | 99 | 1023.9 |
| 20260902123057 | 22 | 0 | 0.0 | 0.0 | 0.00 | 0.00 | 0.00 | 99 | 1023.7 |
| 20260902121602 | 22 | 0 | 0.0 | 0.0 | 0.00 | 0.00 | 0.00 | 98 | 1023.7 |
| 20260902120059 | 22 | 0 | 0.0 | 0.0 | 0.00 | 0.00 | 0.00 | 98 | 1023.6 |
| 20260902114558 | 22 | 0 | 0.0 | 0.0 | 0.00 | 0.00 | 0.00 | 98 | 1023.7 |
| 20260902111656 | 22 | 0 | 0.0 | 0.0 | 0.00 | 0.00 | 0.00 | 98 | 1023.2 |
| 20260902093515 | 22 | 0 | 0.0 | 0.0 | 0.00 | 0.00 | 0.00 | 98 | 1022.8 |
| 20260902070419 | 23 | 0 | 0.0 | 1.6 | 0.00 | 0.00 | 0.00 | 97 | 1022.1 |
| 20260902064933 | 23 | 0 | 0.0 | 1.6 | 0.00 | 0.00 | 0.00 | 97 | 1022.2 |
| 20260902063419 | 23 | 0 | 0.0 | 1.6 | 0.00 | 0.00 | 0.00 | 97 | 1022.2 |
| 20260902061619 | 23 | 0 | 0.0 | 0.0 | 0.00 | 0.00 | 0.00 | 97 | 1022.3 |
| 20260902060109 | 23 | 0 | 0.0 | 1.6 | 0.00 | 0.00 | 0.00 | 97 | 1022.4 |
| 20260902054556 | 23 | 0 | 0.0 | 1.6 | 0.00 | 0.00 | 0.00 | 97 | 1022.4 |
| 20260902053107 | 23 | 0 | 0.0 | 1.6 | 0.00 | 0.00 | 0.00 | 97 | 1022.4 |
| 20260902051615 | 23 | 0 | 0.0 | 1.6 | 0.00 | 0.00 | 0.00 | 96 | 1022.4 |
| 20260902044629 | 23 | 0 | 0.0 | 1.6 | 0.00 | 0.00 | 0.00 | 96 | 1022.3 |
| 20260902043058 | 23 | 76 | 0.0 | 1.6 | 0.00 | 0.00 | 0.00 | 96 | 1022.3 |
| 20260902041556 | 23 | 0 | 0.0 | 1.6 | 0.00 | 0.00 | 0.00 | 96 | 1022.4 |
| 20260902034644 | 23 | 76 | 0.0 | 1.6 | 0.00 | 0.00 | 0.00 | 95 | 1022.3 |
| 20260902033104 | 24 | 0 | 0.0 | 1.6 | 0.00 | 0.00 | 0.00 | 95 | 1022.4 |
| 20260902031612 | 24 | 0 | 0.0 | 1.6 | 0.00 | 0.00 | 0.00 | 95 | 1022.3 |
| 20260902030254 | 24 | 0 | 0.0 | 1.6 | 0.00 | 0.00 | 0.00 | 95 | 1022.3 |
| 20260902024601 | 24 | 76 | 0.0 | 1.6 | 0.00 | 0.00 | 0.00 | 94 | 1022.4 |
| 20260902023104 | 25 | 76 | 0.0 | 3.2 | 0.00 | 0.00 | 0.00 | 94 | 1022.5 |
| 20260902021636 | 25 | 0 | 0.0 | 3.2 | 0.00 | 0.00 | 0.00 | 93 | 1022.4 |
| 20260902020108 | 25 | 0 | 0.0 | 3.2 | 0.00 | 0.00 | 0.00 | 93 | 1022.3 |
| 20260902014644 | 25 | 76 | 0.0 | 3.2 | 0.00 | 0.00 | 0.00 | 93 | 1022.2 |
| 20260902013226 | 25 | 76 | 0.0 | 3.2 | 0.00 | 0.00 | 0.00 | 92 | 1022.2 |
| 20260902011558 | 25 | 76 | 0.0 | 3.2 | 0.00 | 0.00 | 0.00 | 91 | 1022.0 |